Location: Eaton Estates
(41.3089°N, 82.0057°W)
Time: 10:59:24
(UTC+00:00)

USA 305 - Pass Details

Date: 17 June 2021
Orbit: 558 x 580 km, 54.0° (Epoch: 13 July)

Event Time Altitude Azimuth Distance (km) Brightness Sun altitude
Exits shadow 09:08:20 - 264° (W) 2,231 5.4 -7.8°
Reaches altitude 10° 09:09:25 10° 270° (W) 1,843 5.0 -7.6°
Maximum altitude 09:13:09 30° 333° (NNW) 1,010 4.3 -7.1°
Drops below altitude 10° 09:16:54 10° 36° (NE) 1,856 7.1 -6.5°
Sets 09:19:22 0° 47° (NE) 2,758 9.1 -6.2°
